Location: Kosice
(0.0000°N, 21.2500°E)
Time: 18:46:35
(UTC+01:00)

Cosmos 1892 - Pass Details

Date: 24 January 2021
Orbit: 504 x 522 km, 82.5° (Epoch: 01 March)

Event Time Altitude Azimuth Distance (km) Brightness Sun altitude
Rises 18:29:35 0° 171° (S) 2,605 6.4 -10.0°
Reaches altitude 10° 18:31:48 10° 163° (SSE) 1,716 5.4 -10.5°
Maximum altitude 18:35:19 38° 94° (E) 780 3.1 -11.4°
Drops below altitude 10° 18:38:48 10° 25° (NNE) 1,705 4.9 -12.2°
Enters shadow 18:39:02 - 23° (NNE) 1,792 5.0 -12.2°
